contact:dominique.lefevre@mio.osupytheas.fr, maurice.libes@osupytheas.fr, didier.mallarino@osupytheas.fr
Project:EMSO http://www.emso-fr.org/EMSO-France
Depth: 2436.0 m
Title:EMSO Ligure Ouest : Data MII capteur MICROCAT
DateTime_Computer,Latitude,Longitude,Temperature,Conductivity,Pressure,DateTime_Instrument
DateTime_Computer,Latitude,Longitude,degC,S m-1,dbar,DateTime_Instrument
2019-08-02T00:02:44Z,42.805,6.029,13.2998,4.59978,2469.89,2019-8-02T02:03:03Z
2019-08-02T00:05:47Z,42.805,6.029,13.2980,4.59970,2469.914,2019-8-02T02:06:07Z
2019-08-02T00:08:50Z,42.805,6.029,13.3000,4.59988,2469.89,2019-8-02T02:09:10Z
2019-08-02T00:11:54Z,42.805,6.029,13.2987,4.60014,2469.867,2019-8-02T02:12:13Z
2019-08-02T00:14:57Z,42.805,6.029,13.2994,4.59994,2469.876,2019-8-02T02:15:17Z
2019-08-02T00:18:00Z,42.805,6.029,13.2976,4.59982,2469.876,2019-8-02T02:18:20Z
2019-08-02T00:21:04Z,42.805,6.029,13.2971,4.59973,2469.844,2019-8-02T02:21:23Z
2019-08-02T00:24:07Z,42.805,6.029,13.2964,4.59973,2469.853,2019-8-02T02:24:27Z
2019-08-02T00:27:10Z,42.805,6.029,13.2964,4.59973,2469.853,2019-8-02T02:27:30Z
2019-08-02T00:30:13Z,42.805,6.029,13.2963,4.59974,2469.89,2019-8-02T02:30:33Z
2019-08-02T00:33:17Z,42.805,6.029,13.2963,4.59975,2469.853,2019-8-02T02:33:36Z
2019-08-02T00:36:20Z,42.805,6.029,13.2965,4.59976,2469.844,2019-8-02T02:36:40Z
2019-08-02T00:39:23Z,42.805,6.029,13.2962,4.59973,2469.867,2019-8-02T02:39:43Z
2019-08-02T00:42:27Z,42.805,6.029,13.2964,4.59975,2469.806,2019-8-02T02:42:46Z
2019-08-02T00:45:30Z,42.805,6.029,13.2962,4.59969,2469.844,2019-8-02T02:45:50Z
2019-08-02T00:48:33Z,42.805,6.029,13.2968,4.59971,2469.83,2019-8-02T02:48:53Z
2019-08-02T00:51:36Z,42.805,6.029,13.2966,4.59968,2469.806,2019-8-02T02:51:56Z
2019-08-02T00:54:40Z,42.805,6.029,13.2966,4.59968,2469.844,2019-8-02T02:54:59Z
2019-08-02T00:57:43Z,42.805,6.029,13.2964,4.59977,2469.83,2019-8-02T02:58:03Z
2019-08-02T01:00:46Z,42.805,6.029,13.2964,4.59970,2469.83,2019-8-02T03:01:06Z
2019-08-02T01:03:50Z,42.805,6.029,13.2964,4.59971,2469.844,2019-8-02T03:04:09Z
2019-08-02T01:06:53Z,42.805,6.029,13.2964,4.59976,2469.821,2019-8-02T03:07:13Z
2019-08-02T01:09:56Z,42.805,6.029,13.2967,4.59972,2469.806,2019-8-02T03:10:16Z
2019-08-02T01:12:59Z,42.805,6.029,13.2962,4.59971,2469.797,2019-8-02T03:13:19Z
2019-08-02T01:16:03Z,42.805,6.029,13.2961,4.59970,2469.821,2019-8-02T03:16:22Z
2019-08-02T01:19:06Z,42.805,6.029,13.2964,4.59971,2469.83,2019-8-02T03:19:26Z
2019-08-02T01:22:09Z,42.805,6.029,13.2971,4.59966,2469.806,2019-8-02T03:22:29Z
2019-08-02T01:25:13Z,42.805,6.029,13.2961,4.59970,2469.83,2019-8-02T03:25:32Z
2019-08-02T01:28:16Z,42.805,6.029,13.2963,4.59971,2469.783,2019-8-02T03:28:36Z
2019-08-02T01:31:19Z,42.805,6.029,13.2964,4.59972,2469.83,2019-8-02T03:31:39Z
2019-08-02T01:34:23Z,42.805,6.029,13.2964,4.59967,2469.806,2019-8-02T03:34:42Z
2019-08-02T01:37:26Z,42.805,6.029,13.2963,4.59968,2469.821,2019-8-02T03:37:46Z
2019-08-02T01:40:29Z,42.805,6.029,13.2964,4.59969,2469.821,2019-8-02T03:40:49Z
2019-08-02T01:43:33Z,42.805,6.029,13.2964,4.59968,2469.783,2019-8-02T03:43:52Z
2019-08-02T01:46:36Z,42.805,6.029,13.2964,4.59969,2469.797,2019-8-02T03:46:56Z
2019-08-02T01:49:39Z,42.805,6.029,13.2964,4.59968,2469.783,2019-8-02T03:49:59Z
2019-08-02T01:52:43Z,42.805,6.029,13.2962,4.59966,2469.773,2019-8-02T03:53:02Z
2019-08-02T01:55:46Z,42.805,6.029,13.2967,4.59970,2469.821,2019-8-02T03:56:06Z
2019-08-02T01:58:49Z,42.805,6.029,13.2963,4.59966,2469.797,2019-8-02T03:59:09Z
2019-08-02T02:01:53Z,42.805,6.029,13.2966,4.59966,2469.806,2019-8-02T04:02:12Z
2019-08-02T02:04:56Z,42.805,6.029,13.2966,4.59966,2469.783,2019-8-02T04:05:15Z
2019-08-02T02:07:59Z,42.805,6.029,13.2962,4.59966,2469.783,2019-8-02T04:08:19Z
2019-08-02T02:11:02Z,42.805,6.029,13.2968,4.59968,2469.797,2019-8-02T04:11:22Z
2019-08-02T02:14:06Z,42.805,6.029,13.2968,4.59970,2469.746,2019-8-02T04:14:25Z
2019-08-02T02:17:09Z,42.805,6.029,13.2962,4.59973,2469.76,2019-8-02T04:17:29Z
2019-08-02T02:20:12Z,42.805,6.029,13.2964,4.59968,2469.75,2019-8-02T04:20:32Z
2019-08-02T02:23:16Z,42.805,6.029,13.2966,4.59967,2469.783,2019-8-02T04:23:35Z
2019-08-02T02:26:19Z,42.805,6.029,13.2966,4.59969,2469.797,2019-8-02T04:26:39Z
2019-08-02T02:29:22Z,42.805,6.029,13.2967,4.59972,2469.76,2019-8-02T04:29:42Z
2019-08-02T02:32:25Z,42.805,6.029,13.2967,4.59968,2469.773,2019-8-02T04:32:45Z
2019-08-02T02:35:29Z,42.805,6.029,13.2967,4.59969,2469.737,2019-8-02T04:35:48Z
2019-08-02T02:38:32Z,42.805,6.029,13.2961,4.59966,2469.773,2019-8-02T04:38:52Z
2019-08-02T02:41:35Z,42.805,6.029,13.2964,4.59971,2469.76,2019-8-02T04:41:55Z
2019-08-02T02:44:39Z,42.805,6.029,13.2967,4.59968,2469.797,2019-8-02T04:44:58Z
2019-08-02T02:47:42Z,42.805,6.029,13.2963,4.59964,2469.737,2019-8-02T04:48:02Z
2019-08-02T02:50:45Z,42.805,6.029,13.2967,4.59973,2469.773,2019-8-02T04:51:05Z
2019-08-02T02:53:48Z,42.805,6.029,13.2967,4.59971,2469.773,2019-8-02T04:54:08Z
2019-08-02T02:56:52Z,42.805,6.029,13.2966,4.59969,2469.76,2019-8-02T04:57:11Z
2019-08-02T02:59:55Z,42.805,6.029,13.2961,4.59971,2469.76,2019-8-02T05:00:15Z
2019-08-02T03:02:58Z,42.805,6.029,13.2967,4.59968,2469.737,2019-8-02T05:03:18Z
2019-08-02T03:06:01Z,42.805,6.029,13.2962,4.59972,2469.773,2019-8-02T05:06:21Z
2019-08-02T03:09:05Z,42.805,6.029,13.2965,4.59963,2469.76,2019-8-02T05:09:24Z
2019-08-02T03:12:08Z,42.805,6.029,13.2967,4.59966,2469.797,2019-8-02T05:12:28Z
2019-08-02T03:15:11Z,42.805,6.029,13.2965,4.59966,2469.76,2019-8-02T05:15:31Z
2019-08-02T03:18:15Z,42.805,6.029,13.2967,4.59968,2469.769,2019-8-02T05:18:34Z
2019-08-02T03:21:18Z,42.805,6.029,13.2964,4.59964,2469.783,2019-8-02T05:21:38Z
2019-08-02T03:24:21Z,42.805,6.029,13.2961,4.59966,2469.773,2019-8-02T05:24:41Z
2019-08-02T03:27:24Z,42.805,6.029,13.2967,4.59966,2469.783,2019-8-02T05:27:44Z
2019-08-02T03:30:28Z,42.805,6.029,13.2960,4.59969,2469.797,2019-8-02T05:30:47Z
2019-08-02T03:33:31Z,42.805,6.029,13.2965,4.59965,2469.76,2019-8-02T05:33:51Z
2019-08-02T03:36:34Z,42.805,6.029,13.2963,4.59972,2469.737,2019-8-02T05:36:54Z
2019-08-02T03:39:38Z,42.805,6.029,13.2963,4.59967,2469.737,2019-8-02T05:39:57Z
2019-08-02T03:42:41Z,42.805,6.029,13.2964,4.59968,2469.773,2019-8-02T05:43:01Z
2019-08-02T03:45:44Z,42.805,6.029,13.2965,4.59964,2469.773,2019-8-02T05:46:04Z
2019-08-02T03:48:47Z,42.805,6.029,13.2964,4.59968,2469.75,2019-8-02T05:49:07Z
2019-08-02T03:51:51Z,42.805,6.029,13.2963,4.59965,2469.783,2019-8-02T05:52:10Z
2019-08-02T03:54:54Z,42.805,6.029,13.2959,4.59966,2469.75,2019-8-02T05:55:14Z
2019-08-02T03:57:57Z,42.805,6.029,13.2964,4.59964,2469.76,2019-8-02T05:58:17Z
2019-08-02T04:01:01Z,42.805,6.029,13.2962,4.59968,2469.783,2019-8-02T06:01:20Z
2019-08-02T04:04:04Z,42.805,6.029,13.2968,4.59966,2469.783,2019-8-02T06:04:24Z
2019-08-02T04:07:07Z,42.805,6.029,13.2963,4.59967,2469.783,2019-8-02T06:07:27Z
2019-08-02T04:10:10Z,42.805,6.029,13.2961,4.59967,2469.783,2019-8-02T06:10:30Z
2019-08-02T04:13:14Z,42.805,6.029,13.2962,4.59967,2469.806,2019-8-02T06:13:33Z
2019-08-02T04:16:17Z,42.805,6.029,13.2964,4.59967,2469.783,2019-8-02T06:16:37Z
2019-08-02T04:19:20Z,42.805,6.029,13.2971,4.59991,2469.821,2019-8-02T06:19:40Z
2019-08-02T04:22:24Z,42.805,6.029,13.3006,4.60021,2469.821,2019-8-02T06:22:43Z
2019-08-02T04:25:27Z,42.805,6.029,13.2982,4.60020,2469.783,2019-8-02T06:25:47Z
2019-08-02T04:28:30Z,42.805,6.029,13.2970,4.60029,2469.783,2019-8-02T06:28:50Z
2019-08-02T04:31:34Z,42.805,6.029,13.2979,4.60026,2469.821,2019-8-02T06:31:53Z
2019-08-02T04:34:37Z,42.805,6.029,13.2978,4.60030,2469.821,2019-8-02T06:34:56Z
2019-08-02T04:37:40Z,42.805,6.029,13.2971,4.60035,2469.797,2019-8-02T06:38:00Z
2019-08-02T04:40:43Z,42.805,6.029,13.2974,4.60011,2469.806,2019-8-02T06:41:03Z
2019-08-02T04:43:47Z,42.805,6.029,13.2969,4.60029,2469.773,2019-8-02T06:44:06Z
2019-08-02T04:46:50Z,42.805,6.029,13.2976,4.60030,2469.806,2019-8-02T06:47:10Z
2019-08-02T04:49:53Z,42.805,6.029,13.2973,4.60015,2469.783,2019-8-02T06:50:13Z
2019-08-02T04:52:56Z,42.805,6.029,13.2967,4.60024,2469.806,2019-8-02T06:53:16Z
2019-08-02T04:55:59Z,42.805,6.029,13.2982,4.60023,2469.853,2019-8-02T06:56:19Z
2019-08-02T04:59:03Z,42.805,6.029,13.2981,4.60033,2469.83,2019-8-02T06:59:22Z
2019-08-02T05:02:06Z,42.805,6.029,13.2978,4.60022,2469.83,2019-8-02T07:02:25Z
2019-08-02T05:05:09Z,42.805,6.029,13.2974,4.60034,2469.806,2019-8-02T07:05:29Z
2019-08-02T05:08:12Z,42.805,6.029,13.2968,4.60012,2469.783,2019-8-02T07:08:32Z
2019-08-02T05:11:15Z,42.805,6.029,13.2973,4.60033,2469.83,2019-8-02T07:11:35Z
2019-08-02T05:14:19Z,42.805,6.029,13.2985,4.60023,2469.844,2019-8-02T07:14:38Z
2019-08-02T05:17:22Z,42.805,6.029,13.2973,4.60011,2469.844,2019-8-02T07:17:42Z
2019-08-02T05:20:25Z,42.805,6.029,13.2977,4.60025,2469.844,2019-8-02T07:20:45Z
2019-08-02T05:23:28Z,42.805,6.029,13.2983,4.60053,2469.83,2019-8-02T07:23:48Z
2019-08-02T05:26:31Z,42.805,6.029,13.2991,4.60040,2469.853,2019-8-02T07:26:51Z
2019-08-02T05:29:35Z,42.805,6.029,13.2983,4.60042,2469.83,2019-8-02T07:29:54Z
2019-08-02T05:32:38Z,42.805,6.029,13.2974,4.60044,2469.867,2019-8-02T07:32:58Z
2019-08-02T05:35:41Z,42.805,6.029,13.2977,4.60035,2469.83,2019-8-02T07:36:01Z
2019-08-02T05:38:44Z,42.805,6.029,13.2979,4.60035,2469.83,2019-8-02T07:39:04Z
2019-08-02T05:41:47Z,42.805,6.029,13.2982,4.60027,2469.89,2019-8-02T07:42:07Z
2019-08-02T05:44:51Z,42.805,6.029,13.2983,4.60010,2469.853,2019-8-02T07:45:10Z
2019-08-02T05:47:54Z,42.805,6.029,13.2975,4.60036,2469.876,2019-8-02T07:48:13Z
2019-08-02T05:50:57Z,42.805,6.029,13.2981,4.60050,2469.89,2019-8-02T07:51:17Z
2019-08-02T05:54:00Z,42.805,6.029,13.2977,4.60034,2469.89,2019-8-02T07:54:20Z
2019-08-02T05:57:03Z,42.805,6.029,13.2988,4.60016,2469.89,2019-8-02T07:57:23Z
2019-08-02T06:00:07Z,42.805,6.029,13.2977,4.60045,2469.89,2019-8-02T08:00:26Z
2019-08-02T06:03:10Z,42.805,6.029,13.3000,4.60033,2469.9,2019-8-02T08:03:29Z
2019-08-02T06:06:13Z,42.805,6.029,13.2998,4.59985,2469.89,2019-8-02T08:06:33Z
2019-08-02T06:09:16Z,42.805,6.029,13.2986,4.60025,2469.914,2019-8-02T08:09:36Z
2019-08-02T06:12:19Z,42.805,6.029,13.2983,4.60028,2469.867,2019-8-02T08:12:39Z
2019-08-02T06:15:22Z,42.805,6.029,13.2974,4.60010,2469.876,2019-8-02T08:15:42Z
2019-08-02T06:18:26Z,42.805,6.029,13.2982,4.60056,2469.9,2019-8-02T08:18:45Z
2019-08-02T06:21:29Z,42.805,6.029,13.2988,4.60049,2469.914,2019-8-02T08:21:49Z
2019-08-02T06:24:32Z,42.805,6.029,13.2974,4.59997,2469.876,2019-8-02T08:24:52Z
2019-08-02T06:27:35Z,42.805,6.029,13.2968,4.60024,2469.867,2019-8-02T08:27:55Z
2019-08-02T06:30:38Z,42.805,6.029,13.2970,4.60042,2469.937,2019-8-02T08:30:58Z
2019-08-02T06:33:42Z,42.805,6.029,13.2977,4.60013,2469.876,2019-8-02T08:34:01Z
2019-08-02T06:36:45Z,42.805,6.029,13.2995,4.59991,2469.9,2019-8-02T08:37:04Z
2019-08-02T06:39:48Z,42.805,6.029,13.2979,4.60007,2469.914,2019-8-02T08:40:08Z
2019-08-02T06:42:51Z,42.805,6.029,13.2974,4.60018,2469.947,2019-8-02T08:43:11Z
2019-08-02T06:45:54Z,42.805,6.029,13.2975,4.60007,2469.914,2019-8-02T08:46:14Z
2019-08-02T06:48:58Z,42.805,6.029,13.2975,4.60043,2469.914,2019-8-02T08:49:17Z
2019-08-02T06:52:01Z,42.805,6.029,13.2979,4.60024,2469.923,2019-8-02T08:52:20Z
2019-08-02T06:55:04Z,42.805,6.029,13.2971,4.60021,2469.923,2019-8-02T08:55:24Z
2019-08-02T06:58:07Z,42.805,6.029,13.2977,4.60014,2469.923,2019-8-02T08:58:27Z
2019-08-02T07:01:10Z,42.805,6.029,13.2996,4.60024,2469.914,2019-8-02T09:01:30Z
2019-08-02T07:04:13Z,42.805,6.029,13.2998,4.59998,2469.937,2019-8-02T09:04:33Z
2019-08-02T07:07:17Z,42.805,6.029,13.2982,4.59995,2469.9,2019-8-02T09:07:36Z
2019-08-02T07:10:20Z,42.805,6.029,13.2990,4.59997,2469.923,2019-8-02T09:10:40Z
2019-08-02T07:13:23Z,42.805,6.029,13.2990,4.60033,2469.923,2019-8-02T09:13:43Z
2019-08-02T07:16:26Z,42.805,6.029,13.2977,4.60009,2469.914,2019-8-02T09:16:46Z
2019-08-02T07:19:29Z,42.805,6.029,13.2979,4.60025,2469.96,2019-8-02T09:19:49Z
2019-08-02T07:22:33Z,42.805,6.029,13.2970,4.60024,2469.937,2019-8-02T09:22:52Z
2019-08-02T07:25:36Z,42.805,6.029,13.2975,4.60029,2469.9,2019-8-02T09:25:55Z
2019-08-02T07:28:39Z,42.805,6.029,13.2982,4.60026,2469.923,2019-8-02T09:28:59Z
2019-08-02T07:31:42Z,42.805,6.029,13.2985,4.59997,2469.914,2019-8-02T09:32:02Z
2019-08-02T07:34:45Z,42.805,6.029,13.2971,4.60019,2469.96,2019-8-02T09:35:05Z
2019-08-02T07:37:49Z,42.805,6.029,13.2985,4.59988,2469.9,2019-8-02T09:38:08Z
2019-08-02T07:40:52Z,42.805,6.029,13.2981,4.59981,2469.9,2019-8-02T09:41:11Z
2019-08-02T07:43:55Z,42.805,6.029,13.2974,4.59980,2469.923,2019-8-02T09:44:15Z
2019-08-02T07:46:58Z,42.805,6.029,13.2974,4.60029,2469.9,2019-8-02T09:47:18Z
2019-08-02T07:50:01Z,42.805,6.029,13.2976,4.59996,2469.937,2019-8-02T09:50:21Z
2019-08-02T07:53:04Z,42.805,6.029,13.2980,4.59998,2469.914,2019-8-02T09:53:24Z
2019-08-02T07:56:08Z,42.805,6.029,13.2980,4.60006,2469.937,2019-8-02T09:56:27Z
2019-08-02T07:59:11Z,42.805,6.029,13.2971,4.59989,2469.937,2019-8-02T09:59:31Z
2019-08-02T08:02:14Z,42.805,6.029,13.2968,4.59968,2469.914,2019-8-02T10:02:34Z
2019-08-02T08:05:17Z,42.805,6.029,13.2974,4.59963,2469.937,2019-8-02T10:05:37Z
2019-08-02T08:08:20Z,42.805,6.029,13.2981,4.59976,2469.937,2019-8-02T10:08:40Z
2019-08-02T08:11:24Z,42.805,6.029,13.2986,4.59991,2469.923,2019-8-02T10:11:43Z
2019-08-02T08:14:27Z,42.805,6.029,13.2985,4.59994,2469.923,2019-8-02T10:14:47Z
2019-08-02T08:17:30Z,42.805,6.029,13.2981,4.60006,2469.923,2019-8-02T10:17:50Z
2019-08-02T08:20:33Z,42.805,6.029,13.2978,4.59995,2469.923,2019-8-02T10:20:53Z
2019-08-02T08:23:37Z,42.805,6.029,13.2982,4.59985,2469.914,2019-8-02T10:23:56Z
2019-08-02T08:26:40Z,42.805,6.029,13.2987,4.59996,2469.947,2019-8-02T10:27:00Z
2019-08-02T08:29:43Z,42.805,6.029,13.2976,4.59991,2469.914,2019-8-02T10:30:03Z
2019-08-02T08:32:46Z,42.805,6.029,13.2981,4.60013,2469.914,2019-8-02T10:33:06Z
2019-08-02T08:35:50Z,42.805,6.029,13.2970,4.60011,2469.9,2019-8-02T10:36:09Z
2019-08-02T08:38:53Z,42.805,6.029,13.2971,4.60039,2469.914,2019-8-02T10:39:13Z
2019-08-02T08:41:56Z,42.805,6.029,13.2971,4.60029,2469.937,2019-8-02T10:42:16Z
2019-08-02T08:44:59Z,42.805,6.029,13.2985,4.60032,2469.923,2019-8-02T10:45:19Z
2019-08-02T08:48:03Z,42.805,6.029,13.2976,4.60039,2469.914,2019-8-02T10:48:22Z
2019-08-02T08:51:06Z,42.805,6.029,13.2974,4.60008,2469.914,2019-8-02T10:51:26Z
2019-08-02T08:54:09Z,42.805,6.029,13.2973,4.60030,2469.923,2019-8-02T10:54:29Z
2019-08-02T08:57:13Z,42.805,6.029,13.2975,4.60008,2469.876,2019-8-02T10:57:32Z
2019-08-02T09:00:16Z,42.805,6.029,13.2978,4.60010,2469.914,2019-8-02T11:00:36Z
2019-08-02T09:03:19Z,42.805,6.029,13.2971,4.59999,2469.9,2019-8-02T11:03:39Z
2019-08-02T09:06:22Z,42.805,6.029,13.2975,4.59998,2469.937,2019-8-02T11:06:42Z
2019-08-02T09:09:26Z,42.805,6.029,13.2974,4.60025,2469.9,2019-8-02T11:09:45Z
2019-08-02T09:12:29Z,42.805,6.029,13.2976,4.60027,2469.923,2019-8-02T11:12:49Z
2019-08-02T09:15:32Z,42.805,6.029,13.2973,4.60017,2469.89,2019-8-02T11:15:52Z
2019-08-02T09:18:36Z,42.805,6.029,13.2970,4.60011,2469.9,2019-8-02T11:18:55Z
2019-08-02T09:21:39Z,42.805,6.029,13.2970,4.60029,2469.9,2019-8-02T11:21:59Z
2019-08-02T09:24:42Z,42.805,6.029,13.2974,4.60001,2469.89,2019-8-02T11:25:02Z
2019-08-02T09:27:45Z,42.805,6.029,13.2987,4.60043,2469.9,2019-8-02T11:28:05Z
2019-08-02T09:30:49Z,42.805,6.029,13.2978,4.60035,2469.9,2019-8-02T11:31:08Z
2019-08-02T09:33:52Z,42.805,6.029,13.2979,4.60016,2469.937,2019-8-02T11:34:12Z
2019-08-02T09:36:55Z,42.805,6.029,13.2989,4.60046,2469.876,2019-8-02T11:37:15Z
2019-08-02T09:39:59Z,42.805,6.029,13.2992,4.60049,2469.853,2019-8-02T11:40:18Z
2019-08-02T09:43:02Z,42.805,6.029,13.2983,4.60020,2469.863,2019-8-02T11:43:22Z
2019-08-02T09:46:05Z,42.805,6.029,13.2977,4.60031,2469.876,2019-8-02T11:46:25Z
2019-08-02T09:49:08Z,42.805,6.029,13.2986,4.60028,2469.876,2019-8-02T11:49:28Z
2019-08-02T09:52:12Z,42.805,6.029,13.2976,4.60017,2469.89,2019-8-02T11:52:31Z
2019-08-02T09:55:15Z,42.805,6.029,13.2982,4.60013,2469.867,2019-8-02T11:55:35Z
2019-08-02T09:58:18Z,42.805,6.029,13.2978,4.60032,2469.89,2019-8-02T11:58:38Z
2019-08-02T10:01:22Z,42.805,6.029,13.3002,4.60031,2469.853,2019-8-02T12:01:41Z
2019-08-02T10:04:25Z,42.805,6.029,13.2996,4.59992,2469.853,2019-8-02T12:04:45Z
2019-08-02T10:07:29Z,42.805,6.029,13.2995,4.59990,2469.876,2019-8-02T12:07:48Z
2019-08-02T10:10:32Z,42.805,6.029,13.2989,4.60006,2469.853,2019-8-02T12:10:52Z
2019-08-02T10:13:35Z,42.805,6.029,13.2993,4.60005,2469.853,2019-8-02T12:13:55Z
2019-08-02T10:16:38Z,42.805,6.029,13.2986,4.59983,2469.867,2019-8-02T12:16:58Z
2019-08-02T10:19:42Z,42.805,6.029,13.2984,4.59980,2469.844,2019-8-02T12:20:01Z
2019-08-02T10:22:45Z,42.805,6.029,13.2986,4.60012,2469.867,2019-8-02T12:23:05Z
2019-08-02T10:25:48Z,42.805,6.029,13.2986,4.59994,2469.853,2019-8-02T12:26:08Z
2019-08-02T10:28:52Z,42.805,6.029,13.2982,4.60011,2469.867,2019-8-02T12:29:11Z
2019-08-02T10:31:55Z,42.805,6.029,13.2970,4.60001,2469.83,2019-8-02T12:32:15Z
2019-08-02T10:34:58Z,42.805,6.029,13.2980,4.60016,2469.876,2019-8-02T12:35:18Z
2019-08-02T10:38:01Z,42.805,6.029,13.2989,4.59999,2469.853,2019-8-02T12:38:21Z
2019-08-02T10:41:05Z,42.805,6.029,13.2990,4.60036,2469.83,2019-8-02T12:41:24Z
2019-08-02T10:44:08Z,42.805,6.029,13.2991,4.60008,2469.844,2019-8-02T12:44:28Z
2019-08-02T10:47:11Z,42.805,6.029,13.2979,4.60021,2469.83,2019-8-02T12:47:31Z
2019-08-02T10:50:14Z,42.805,6.029,13.2995,4.59987,2469.89,2019-8-02T12:50:34Z
2019-08-02T10:53:18Z,42.805,6.029,13.2990,4.59990,2469.853,2019-8-02T12:53:37Z
2019-08-02T10:56:21Z,42.805,6.029,13.2974,4.59966,2469.844,2019-8-02T12:56:41Z
2019-08-02T10:59:24Z,42.805,6.029,13.2963,4.59966,2469.853,2019-8-02T12:59:44Z
2019-08-02T11:02:28Z,42.805,6.029,13.2981,4.59991,2469.821,2019-8-02T13:02:47Z
2019-08-02T11:05:31Z,42.805,6.029,13.2990,4.59991,2469.844,2019-8-02T13:05:51Z
2019-08-02T11:08:34Z,42.805,6.029,13.2960,4.59977,2469.867,2019-8-02T13:08:54Z
2019-08-02T11:11:37Z,42.805,6.029,13.2978,4.60015,2469.821,2019-8-02T13:11:57Z
2019-08-02T11:14:41Z,42.805,6.029,13.2981,4.59975,2469.821,2019-8-02T13:15:00Z
2019-08-02T11:17:44Z,42.805,6.029,13.2967,4.59976,2469.821,2019-8-02T13:18:04Z
2019-08-02T11:20:47Z,42.805,6.029,13.2989,4.59969,2469.806,2019-8-02T13:21:07Z
2019-08-02T11:23:51Z,42.805,6.029,13.2987,4.59978,2469.806,2019-8-02T13:24:10Z
2019-08-02T11:26:54Z,42.805,6.029,13.2976,4.59963,2469.844,2019-8-02T13:27:14Z
2019-08-02T11:29:57Z,42.805,6.029,13.2961,4.59961,2469.821,2019-8-02T13:30:17Z
2019-08-02T11:33:01Z,42.805,6.029,13.2961,4.59957,2469.806,2019-8-02T13:33:20Z
2019-08-02T11:36:04Z,42.805,6.029,13.2979,4.59986,2469.806,2019-8-02T13:36:24Z
2019-08-02T11:39:07Z,42.805,6.029,13.2959,4.59964,2469.821,2019-8-02T13:39:27Z
2019-08-02T11:42:11Z,42.805,6.029,13.2961,4.59961,2469.783,2019-8-02T13:42:30Z
2019-08-02T11:45:14Z,42.805,6.029,13.2958,4.59961,2469.783,2019-8-02T13:45:34Z
2019-08-02T11:48:17Z,42.805,6.029,13.2960,4.59961,2469.821,2019-8-02T13:48:37Z
2019-08-02T11:51:20Z,42.805,6.029,13.2965,4.59961,2469.806,2019-8-02T13:51:40Z
2019-08-02T11:54:24Z,42.805,6.029,13.2964,4.59958,2469.783,2019-8-02T13:54:43Z
2019-08-02T11:57:27Z,42.805,6.029,13.2961,4.59959,2469.783,2019-8-02T13:57:47Z
2019-08-02T12:00:31Z,42.805,6.029,13.2958,4.59963,2469.797,2019-8-02T14:00:50Z
2019-08-02T12:03:34Z,42.805,6.029,13.2958,4.59961,2469.783,2019-8-02T14:03:54Z
2019-08-02T12:06:37Z,42.805,6.029,13.2961,4.59959,2469.797,2019-8-02T14:06:57Z
2019-08-02T12:09:41Z,42.805,6.029,13.2954,4.59960,2469.783,2019-8-02T14:10:00Z
2019-08-02T12:12:44Z,42.805,6.029,13.2961,4.59961,2469.797,2019-8-02T14:13:04Z
2019-08-02T12:15:47Z,42.805,6.029,13.2958,4.59957,2469.783,2019-8-02T14:16:07Z
2019-08-02T12:18:50Z,42.805,6.029,13.2961,4.59957,2469.737,2019-8-02T14:19:10Z
2019-08-02T12:21:54Z,42.805,6.029,13.2959,4.59956,2469.737,2019-8-02T14:22:13Z
2019-08-02T12:24:57Z,42.805,6.029,13.2962,4.59956,2469.773,2019-8-02T14:25:17Z
2019-08-02T12:28:00Z,42.805,6.029,13.2957,4.59956,2469.737,2019-8-02T14:28:20Z
2019-08-02T12:31:04Z,42.805,6.029,13.2959,4.59957,2469.797,2019-8-02T14:31:23Z
2019-08-02T12:34:07Z,42.805,6.029,13.2958,4.59958,2469.713,2019-8-02T14:34:27Z
2019-08-02T12:37:10Z,42.805,6.029,13.2960,4.59958,2469.76,2019-8-02T14:37:30Z
2019-08-02T12:40:13Z,42.805,6.029,13.2957,4.59958,2469.737,2019-8-02T14:40:33Z
2019-08-02T12:43:17Z,42.805,6.029,13.2961,4.59957,2469.75,2019-8-02T14:43:36Z
2019-08-02T12:46:20Z,42.805,6.029,13.2958,4.59957,2469.727,2019-8-02T14:46:40Z
2019-08-02T12:49:23Z,42.805,6.029,13.2961,4.59956,2469.737,2019-8-02T14:49:43Z
2019-08-02T12:52:27Z,42.805,6.029,13.2959,4.59956,2469.75,2019-8-02T14:52:46Z
2019-08-02T12:55:30Z,42.805,6.029,13.2961,4.59958,2469.737,2019-8-02T14:55:50Z
2019-08-02T12:58:33Z,42.805,6.029,13.2958,4.59956,2469.737,2019-8-02T14:58:53Z
2019-08-02T13:01:37Z,42.805,6.029,13.2959,4.59956,2469.75,2019-8-02T15:01:56Z
2019-08-02T13:04:40Z,42.805,6.029,13.2955,4.59958,2469.737,2019-8-02T15:05:00Z
2019-08-02T13:07:43Z,42.805,6.029,13.2959,4.59956,2469.76,2019-8-02T15:08:03Z
2019-08-02T13:10:46Z,42.805,6.029,13.2960,4.59957,2469.75,2019-8-02T15:11:06Z
2019-08-02T13:13:50Z,42.805,6.029,13.2959,4.59956,2469.746,2019-8-02T15:14:09Z
2019-08-02T13:16:53Z,42.805,6.029,13.2960,4.59959,2469.727,2019-8-02T15:17:13Z
2019-08-02T13:19:56Z,42.805,6.029,13.2962,4.59958,2469.737,2019-8-02T15:20:16Z
2019-08-02T13:22:59Z,42.805,6.029,13.2960,4.59958,2469.75,2019-8-02T15:23:19Z
2019-08-02T13:26:03Z,42.805,6.029,13.2960,4.59958,2469.713,2019-8-02T15:26:22Z
2019-08-02T13:29:06Z,42.805,6.029,13.2961,4.59958,2469.75,2019-8-02T15:29:26Z
2019-08-02T13:32:09Z,42.805,6.029,13.2961,4.59965,2469.737,2019-8-02T15:32:29Z
2019-08-02T13:35:12Z,42.805,6.029,13.2961,4.59958,2469.75,2019-8-02T15:35:32Z
2019-08-02T13:38:16Z,42.805,6.029,13.2960,4.59959,2469.713,2019-8-02T15:38:35Z
2019-08-02T13:41:19Z,42.805,6.029,13.2958,4.59962,2469.69,2019-8-02T15:41:39Z
2019-08-02T13:44:22Z,42.805,6.029,13.2963,4.59957,2469.727,2019-8-02T15:44:42Z
2019-08-02T13:47:26Z,42.805,6.029,13.2979,4.59971,2469.69,2019-8-02T15:47:45Z
2019-08-02T13:50:29Z,42.805,6.029,13.2995,4.59971,2469.704,2019-8-02T15:50:49Z
2019-08-02T13:53:32Z,42.805,6.029,13.2966,4.59973,2469.713,2019-8-02T15:53:52Z
2019-08-02T13:56:35Z,42.805,6.029,13.2979,4.59988,2469.75,2019-8-02T15:56:55Z
2019-08-02T13:59:39Z,42.805,6.029,13.2974,4.59961,2469.727,2019-8-02T15:59:58Z
2019-08-02T14:02:42Z,42.805,6.029,13.2967,4.59967,2469.704,2019-8-02T16:03:02Z
2019-08-02T14:05:45Z,42.805,6.029,13.2966,4.59963,2469.713,2019-8-02T16:06:05Z
2019-08-02T14:08:49Z,42.805,6.029,13.2963,4.59960,2469.69,2019-8-02T16:09:08Z
2019-08-02T14:11:52Z,42.805,6.029,13.2973,4.59961,2469.704,2019-8-02T16:12:12Z
2019-08-02T14:14:55Z,42.805,6.029,13.2972,4.59976,2469.713,2019-8-02T16:15:15Z
2019-08-02T14:17:59Z,42.805,6.029,13.2969,4.59980,2469.704,2019-8-02T16:18:18Z
2019-08-02T14:21:02Z,42.805,6.029,13.2961,4.59961,2469.713,2019-8-02T16:21:22Z
2019-08-02T14:24:05Z,42.805,6.029,13.2969,4.59969,2469.69,2019-8-02T16:24:25Z
2019-08-02T14:27:08Z,42.805,6.029,13.2965,4.59961,2469.69,2019-8-02T16:27:28Z
2019-08-02T14:30:12Z,42.805,6.029,13.2963,4.59960,2469.69,2019-8-02T16:30:31Z
2019-08-02T14:33:15Z,42.805,6.029,13.2987,4.59981,2469.737,2019-8-02T16:33:35Z
2019-08-02T14:36:18Z,42.805,6.029,13.2974,4.59964,2469.69,2019-8-02T16:36:38Z
2019-08-02T14:39:21Z,42.805,6.029,13.2961,4.59920,2469.704,2019-8-02T16:39:41Z
2019-08-02T14:42:24Z,42.805,6.029,13.2967,4.59960,2469.704,2019-8-02T16:42:44Z
2019-08-02T14:45:28Z,42.805,6.029,13.2958,4.59962,2469.727,2019-8-02T16:45:47Z
2019-08-02T14:48:31Z,42.805,6.029,13.3009,4.59984,2469.704,2019-8-02T16:48:50Z
2019-08-02T14:51:34Z,42.805,6.029,13.2964,4.59961,2469.713,2019-8-02T16:51:54Z
2019-08-02T14:54:37Z,42.805,6.029,13.2964,4.59963,2469.704,2019-8-02T16:54:57Z
2019-08-02T14:57:40Z,42.805,6.029,13.2958,4.59961,2469.713,2019-8-02T16:58:00Z
2019-08-02T15:00:44Z,42.805,6.029,13.2958,4.59960,2469.69,2019-8-02T17:01:03Z
2019-08-02T15:03:47Z,42.805,6.029,13.2959,4.59959,2469.704,2019-8-02T17:04:07Z
2019-08-02T15:06:50Z,42.805,6.029,13.2962,4.59960,2469.727,2019-8-02T17:07:10Z
2019-08-02T15:09:53Z,42.805,6.029,13.2960,4.59961,2469.704,2019-8-02T17:10:13Z
2019-08-02T15:12:56Z,42.805,6.029,13.2959,4.59962,2469.704,2019-8-02T17:13:16Z
2019-08-02T15:16:00Z,42.805,6.029,13.2961,4.59961,2469.69,2019-8-02T17:16:19Z